{"data":{"norad_id":69249,"intl_designator":"2026-117M","name":"STARLINK-37398","alt_names":[],"object_type":"PAYLOAD","status":"ACTIVE","operator":null,"country":"US","launch_date":"2026-05-29","launch_site_code":"AFETR","launch_vehicle":null,"mission":null,"orbit_class":"UNKNOWN","rcs_meters":null,"size_class":null,"mass_kg":null,"dimensions":null,"purposes":["comms"],"wikipedia_slug":null,"has_3d_model":false,"image_url":null,"decayed_at":null,"tle_current":{"epoch":"2026-09-20T01:44:52.455840Z","epoch_age_seconds":63830,"freshness":"FRESH","line1":"1 69249U 26117M   26263.07282935  .00019848  00000+0  59678-3 0  9999","line2":"2 69249  53.1547 155.5886 0001593  97.6284 262.4899 15.34411260 17600","mean_motion":15.3441126,"eccentricity":0.0001593,"inclination_deg":53.1547,"raan_deg":155.5886,"arg_perigee_deg":97.6284,"mean_anomaly_deg":262.4899,"bstar":0.00059678,"rev_number":1760,"period_min":93.847069396506,"perigee_km":461.58003279984,"apogee_km":463.75951383782,"semimajor_km":6840.8067733188,"source":"CELESTRAK","updated_at":"2026-09-20T09:00:44.149547Z"}}}